STARLINK-5673, 55462

Orbit data source: Space-Track

STARLINK-5673, 55462 is a payload satellite owned by SpaceX/Seattle (US) in LEO that was launched on Thu, 02 Feb 2023 UTC via an FALCON 9 launch vehicle from the Air Force Eastern Test Range (AFETR). Payload-class satellites include a variety of spacecraft equipped with specific instruments for various scientific and technological missions. These include communications satellites like Starlink; space stations such as the ISS; scientific satellites like the Hubble; Earth observation satellites from companies like Planet Labs, Umbra, and HawkEye 360; GPS; miniature CubeSats for education and research; and military/defense satellites.

Loading next visibility...
Identifier
55462, 2023-015P
Orbit
LEO
Country
Flag of USUS
Related business
Manufacturer
SpaceX/Seattle
Mission
Operational Commercial Communications
Bus & Motor
STARLINK, Unknown motor
Mass
305 kg wet, ~290 kg dry
Launch date (UTC)
2023-02-02 (3 years ago)
Launch vehicle
FALCON 9
Launch site
Air Force Eastern Test Range (AFETR)
Object type
Payload
Rocket body
Debris
Shape & HBR
Box + 1 Pan, 10.1 m
Radar Cross Section
13.562 m², Large (>1 m²)

Expand to show TLE details & history
Last TLE update: 6 hours ago

TLE from 6 hours ago
0 STARLINK-5673
1 55462U 23015P   26132.89340468 -.00000197  00000-0  23647-5 0  9994
2 55462  43.0040 325.9123 0000987 273.3181  86.7557 15.27575965180547
Epoch: 2026-05-12T21:26Z
TLE epoch observation values (Epoch: 2026-05-12T21:26:30.164Z)
Latitude
-0.00006°
Longitude
133.6253°
Altitude
482.799 km
Speed
7.626 km/s
True Right ascension
21h 43m 38s
True Declination
0° 00' 00"
Sunlit
Object was in daylight at epoch
Visualization orbit readout
Latitude
Unknown
Longitude
Unknown
Altitude
Unknown
Speed
Unknown
Apparent Right ascension
Unknown
Apparent Declination
Unknown
Sunlit
N/A
Visualization observer readout
Local Sidereal Time
12:10:32
Azimuth
Unknown
Elevation
Unknown
Doppler factor
Unknown
Orbital elements
Apogee altitude
485.683 km
Perigee altitude
484.328 km
Semi-major axis
6,863.143 km
Eccentricity
0.0001
Inclination
43.004°
RAAN
325.9123°
Arg. of periapsis
273.3181°
True anomaly
86.76699°
Mean anomaly
86.7557°
Eccentric anomaly
86.76135°
Mean motion
3.81732 °/min
Orbital period
94.31 mins
BSTAR
0.0000023647
Loading maneuver chart data...
Computing Atmospheric mass density...
Loading historical data...
Loading historical data...
Loading historical data...
Loading historical data...
Loading historical data...
Loading historical data...
Loading historical data...

Documentation

Showing up to 5 results
|